[[{"header":{"parameterUnit":"m.s-1","parameterCategory":1,"la1":30.2991,"la2":30.254,"lo1":-89.0895,"lo2":-89.0444,"dy":0.0017,"dx":0.0017,"nx":28,"ny":28,"refTime":"2025-02-28T03:00:00:Z","depth":0,"parameterNumber":2,"parameterNumberName":"U-component_of_WINDS"},"data":[0,0,0,0,0,0,0,0,0,0,0,0,0,0,0,0,0,0,0,0,0,0,0,0,0,0,0,0,0,0,0,0,0,0,0,0,0,0,0,0,0,0,0,0,0,0,0,0,0,0,0,0,0,0,0,0,0,0,0.7045,0.7045,0,0.7037,0.7037,0.7036,0.7025,0.7025,0.7025,0.7025,0.7016,0.7016,0.7016,0,0,0,0,0,0,0,0,0,0,0,0,0,0.705,0.705,0.7045,0.7045,0.7045,0.7037,0.7037,0.7036,0.7025,0.7025,0.7025,0.7025,0.7016,0.7016,0.7016,0,0,0,0,0,0,0,0,0,0,0,0,0,0.7046,0.705,0.7045,0.7038,0.7038,0.7037,0.7037,0.7036,0.7025,0.7025,0.7025,0.7025,0.7016,0.7016,0.7016,0.7021,0,0,0.7016,0.7016,0,0,0,0,0,0,0,0,0.7046,0.7045,0.7039,0.7039,0.7038,0.7032,0.7035,0.7031,0.7025,0.703,0.7025,0.7024,0.7022,0.7021,0.702,0.702,0.702,0.7016,0.7016,0.7016,0.7016,0,0,0,0,0,0,0,0.7046,0.7046,0.7042,0.7039,0.7039,0.7035,0.7034,0.7034,0.7027,0.703,0.7029,0.7028,0.7021,0.702,0.702,0.702,0.7016,0.7016,0.7016,0.7016,0.7022,0.7022,0,0,0,0,0,0,0.7048,0.7046,0.7042,0.7041,0.7041,0.7035,0.7034,0.7034,0.7027,0.7026,0.7028,0.7027,0.702,0.702,0.7019,0.7023,0.7016,0.7016,0.7015,0.7022,0.7022,0.7022,0,0,0,0,0,0,0.7048,0.7047,0.7042,0.7044,0.7043,0.7036,0.7035,0.7034,0.7033,0.7026,0.7025,0.7029,0.702,0.7019,0.702,0.7023,0.7015,0.7015,0.7022,0.7022,0.7022,0.7033,0,0,0,0,0,0,0.7048,0.7048,0.705,0.7044,0.7043,0.7044,0.7036,0.7034,0.7033,0.7032,0.7026,0.7025,0.702,0.702,0.702,0.7023,0.7015,0.7021,0.7022,0.7022,0.7032,0.7033,0.7034,0,0,0,0,0,0.7048,0.7053,0.705,0.705,0.7045,0.7044,0.7043,0.7037,0.7033,0.7035,0.703,0.7025,0.7023,0.7021,0.702,0.7023,0.7021,0.7022,0.7022,0.7031,0.7033,0.7034,0,0,0,0,0,0,0.7061,0.7053,0.7049,0.7052,0.7049,0.7042,0.7044,0.7039,0.7037,0.7036,0.7029,0.7028,0.7029,0.7026,0.7024,0.7026,0.7021,0.7022,0.7028,0.703,0.7031,0.7031,0.7015,0,0,0,0,0,0.7064,0.7063,0.7056,0.706,0.7058,0.7052,0.7051,0.7046,0.7043,0.7041,0.7037,0.7033,0.7031,0.703,0.7028,0.7031,0.7029,0.7033,0.7034,0.7035,0.7036,0.7035,0.7036,0.7024,0.7024,0.7024,0,0,0.707,0.7066,0.7066,0.7062,0.7059,0.7059,0.7051,0.7051,0.705,0.7041,0.7041,0.7038,0.7033,0.7034,0.7035,0.7032,0.7038,0.7036,0.7037,0.7036,0.7036,0.7037,0.7038,0.7024,0.7024,0.7024,0,0,0.7081,0.7078,0.708,0.7077,0.7072,0.7067,0.7068,0.7061,0.7059,0.7058,0.7051,0.705,0.7048,0.7044,0.7042,0.705,0.7045,0.7049,0.7056,0.7056,0.7057,0.7057,0.7059,0.706,0.705,0.705,0.705,0,0.709,0.7089,0.7082,0.7082,0.708,0.7071,0.7073,0.707,0.7065,0.7063,0.706,0.7056,0.7052,0.7052,0.7053,0.7052,0.7052,0.705,0.7057,0.7058,0.7058,0.706,0.7061,0.7051,0.705,0.705,0.705,0,0.7099,0.7099,0.7101,0.7095,0.7093,0.7094,0.7087,0.7086,0.7081,0.7076,0.7075,0.707,0.7066,0.7066,0.7062,0.7065,0.7063,0.7059,0.7053,0.706,0.7062,0.7062,0.7051,0.7051,0.7051,0.7051,0,0,0.7119,0.7109,0.7109,0.7106,0.7099,0.7098,0.7098,0.7094,0.7093,0.7089,0.7088,0.7085,0.7081,0.7078,0.7073,0.7073,0.7078,0.7068,0.7068,0.707,0.708,0.7083,0.7084,0.7075,0.7075,0.7075,0.708,0,0.7128,0.7128,0.7121,0.7122,0.712,0.7111,0.7111,0.7106,0.7101,0.7099,0.7093,0.7091,0.7086,0.7084,0.7083,0.7078,0.708,0.7077,0.7073,0.7073,0.7074,0.7085,0.7088,0.7093,0.7081,0.7081,0.7081,0,0.714,0.7136,0.7137,0.7128,0.7127,0.7127,0.7122,0.712,0.7114,0.711,0.7107,0.7101,0.7099,0.7094,0.7091,0.7089,0.7087,0.7083,0.7083,0.7083,0.7077,0.7084,0.7095,0.7096,0.7082,0.7082,0.7082,0,0.7153,0.7148,0.7147,0.7145,0.7135,0.7135,0.7131,0.7125,0.7122,0.7118,0.7116,0.7111,0.7109,0.7105,0.7097,0.7094,0.7095,0.7089,0.7091,0.7091,0.7092,0.7092,0.7102,0.7091,0.7091,0.7091,0.7091,0,0.7164,0.7164,0.7153,0.7152,0.7152,0.7144,0.7144,0.7139,0.7133,0.7131,0.7123,0.7121,0.7111,0.7108,0.7102,0.71,0.7099,0.7095,0.7094,0.7096,0.7096,0.7094,0.7093,0.7091,0.7091,0.7091,0.7091,0,0.7179,0.7171,0.7169,0.716,0.7158,0.7158,0.715,0.7149,0.7143,0.714,0.7139,0.713,0.7125,0.7117,0.7111,0.7107,0.7105,0.7103,0.7107,0.7106,0.7108,0.7108,0.7118,0.7118,0.7107,0.7107,0.7107,0,0.7186,0.7186,0.7176,0.7174,0.717,0.7167,0.7164,0.7156,0.7153,0.7145,0.7144,0.7139,0.7135,0.7128,0.7121,0.7115,0.7112,0.7116,0.7111,0.7113,0.7111,0.7111,0.7111,0.7117,0.7117,0.7117,0.7117,0,0.72,0.7195,0.7192,0.7186,0.7183,0.7178,0.7173,0.7171,0.7161,0.7158,0.7153,0.715,0.7143,0.7137,0.7131,0.7126,0.712,0.7119,0.7119,0.7121,0.7123,0.7121,0.711,0.7119,0.7119,0.7118,0.7118,0.7118,0.721,0.7209,0.7202,0.7198,0.7193,0.7188,0.7186,0.7179,0.7175,0.7168,0.7163,0.7158,0.7151,0.7141,0.7137,0.7132,0.713,0.713,0.713,0.713,0.713,0.7124,0.7131,0.7131,0.7131,0.7131,0.7131,0,0.7223,0.7217,0.7213,0.7206,0.7202,0.7196,0.719,0.7187,0.7183,0.7176,0.7172,0.7166,0.716,0.7151,0.7145,0.7143,0.714,0.7142,0.7142,0.714,0.7134,0.7134,0.7144,0.7144,0.7144,0.7144,0.7144,0.7144,0.7229,0.7226,0.7221,0.7216,0.721,0.7205,0.7202,0.7197,0.7192,0.7185,0.718,0.7175,0.7167,0.716,0.7154,0.7152,0.7149,0.7152,0.7149,0.7142,0.7141,0.714,0.714,0.7152,0.7152,0.7156,0.7156,0.7156]},{"header":{"parameterUnit":"m.s-1","parameterCategory":1,"la1":30.2991,"la2":30.254,"lo1":-89.0895,"lo2":-89.0444,"dy":0.0017,"dx":0.0017,"nx":28,"ny":28,"refTime":"2025-02-28T03:00:00:Z","depth":0,"parameterNumber":3,"parameterNumberName":"V-component_of_WINDS"},"data":[0,0,0,0,0,0,0,0,0,0,0,0,0,0,0,0,0,0,0,0,0,0,0,0,0,0,0,0,0,0,0,0,0,0,0,0,0,0,0,0,0,0,0,0,0,0,0,0,0,0,0,0,0,0,0,0,0,0,1.4389,1.4389,0,1.4354,1.4354,1.4353,1.4322,1.4321,1.4321,1.4321,1.4283,1.4282,1.4282,0,0,0,0,0,0,0,0,0,0,0,0,0,1.4427,1.4426,1.4389,1.4389,1.4388,1.4354,1.4353,1.4353,1.4322,1.4321,1.4321,1.432,1.4283,1.4282,1.4282,0,0,0,0,0,0,0,0,0,0,0,0,0,1.4403,1.4426,1.4389,1.4368,1.4366,1.4354,1.4353,1.4353,1.4322,1.4321,1.4321,1.432,1.4283,1.4282,1.4282,1.4286,0,0,1.4278,1.4278,0,0,0,0,0,0,0,0,1.4404,1.4402,1.4372,1.437,1.4367,1.4342,1.4353,1.4331,1.4322,1.4339,1.4321,1.432,1.4303,1.43,1.4295,1.4285,1.4283,1.4278,1.4278,1.4277,1.4277,0,0,0,0,0,0,0,1.4406,1.4403,1.4375,1.4372,1.4369,1.436,1.4356,1.4349,1.4324,1.4337,1.4335,1.4331,1.4301,1.4296,1.4294,1.4282,1.4278,1.4278,1.4277,1.4277,1.4273,1.4274,0,0,0,0,0,0,1.4411,1.4405,1.4376,1.4374,1.4385,1.436,1.4356,1.435,1.4324,1.432,1.4332,1.433,1.4298,1.4295,1.4292,1.4295,1.4277,1.4276,1.4276,1.4273,1.4274,1.4274,0,0,0,0,0,0,1.4412,1.4409,1.4378,1.4389,1.4384,1.436,1.4354,1.435,1.4344,1.432,1.4315,1.4331,1.4297,1.4294,1.4288,1.4294,1.4276,1.4275,1.4272,1.4273,1.4274,1.4302,0,0,0,0,0,0,1.4413,1.441,1.4412,1.4389,1.4384,1.4375,1.4355,1.435,1.4343,1.434,1.4318,1.4313,1.4297,1.429,1.4287,1.4292,1.4274,1.4272,1.4273,1.4274,1.4301,1.4304,1.4307,0,0,0,0,0,1.4415,1.4421,1.4412,1.4409,1.4386,1.4375,1.4372,1.4353,1.4344,1.4345,1.4329,1.4314,1.4294,1.4289,1.4286,1.4291,1.4271,1.4272,1.4273,1.4299,1.4303,1.4307,0,0,0,0,0,0,1.4444,1.4418,1.4407,1.4406,1.4393,1.437,1.4371,1.4358,1.4346,1.4344,1.432,1.4316,1.4312,1.4301,1.4297,1.4294,1.428,1.4281,1.4301,1.4305,1.4308,1.431,1.4273,0,0,0,0,0,1.4451,1.4445,1.4422,1.4423,1.4417,1.4395,1.439,1.4376,1.4362,1.4356,1.434,1.4325,1.4316,1.431,1.4299,1.4299,1.4293,1.4301,1.4304,1.4306,1.4307,1.4305,1.4308,1.4278,1.4278,1.4278,0,0,1.4464,1.4449,1.4446,1.4429,1.4417,1.441,1.4391,1.4385,1.438,1.4355,1.4348,1.4336,1.4318,1.4315,1.4313,1.4306,1.4314,1.4308,1.431,1.4309,1.4306,1.4309,1.4312,1.4279,1.4278,1.4278,0,0,1.4485,1.4473,1.4472,1.4461,1.4444,1.4429,1.4429,1.4407,1.4398,1.4392,1.4372,1.4366,1.435,1.4338,1.4329,1.4345,1.433,1.4343,1.4358,1.4356,1.4359,1.4361,1.4365,1.4367,1.4343,1.4343,1.4343,0,1.4503,1.4493,1.4474,1.4469,1.4461,1.4439,1.4437,1.4427,1.4407,1.4402,1.4394,1.4373,1.436,1.4353,1.4357,1.4352,1.435,1.4345,1.436,1.4362,1.4363,1.4367,1.4369,1.4345,1.4345,1.4345,1.4344,0,1.4516,1.451,1.4511,1.4493,1.4485,1.4483,1.4462,1.4456,1.4444,1.443,1.4423,1.4406,1.4391,1.4389,1.4376,1.438,1.4376,1.4365,1.435,1.4368,1.4371,1.4373,1.4347,1.4347,1.4346,1.4346,0,0,1.4554,1.4525,1.4525,1.4517,1.4496,1.449,1.4486,1.4472,1.4468,1.4455,1.445,1.4437,1.4426,1.4416,1.4402,1.4401,1.4413,1.4389,1.4388,1.4393,1.4415,1.4424,1.4426,1.4404,1.4404,1.4404,1.4417,0,1.457,1.4562,1.4544,1.4541,1.4534,1.4512,1.4508,1.4495,1.4482,1.4474,1.4459,1.4449,1.4436,1.443,1.4428,1.4412,1.4417,1.4411,1.4398,1.4398,1.4402,1.4428,1.4437,1.4449,1.4418,1.4418,1.4418,0,1.4588,1.4577,1.4573,1.4552,1.4549,1.4546,1.4531,1.4524,1.4508,1.4498,1.4488,1.4472,1.4466,1.4453,1.4443,1.444,1.4433,1.4425,1.4424,1.4422,1.4408,1.4425,1.4453,1.4455,1.442,1.442,1.442,0,1.4615,1.4599,1.4594,1.4587,1.4563,1.4561,1.4551,1.4534,1.4527,1.4514,1.4509,1.4496,1.4488,1.4478,1.4459,1.4452,1.445,1.4437,1.4441,1.4442,1.4441,1.4442,1.4468,1.4439,1.4439,1.4439,1.4439,0,1.4635,1.4633,1.4606,1.4603,1.46,1.4579,1.4577,1.4565,1.455,1.4544,1.4524,1.4519,1.4494,1.4485,1.447,1.4463,1.446,1.4452,1.4448,1.4453,1.4454,1.4448,1.4446,1.4439,1.4439,1.4439,1.4439,0,1.4664,1.4646,1.4639,1.4617,1.4611,1.461,1.459,1.4586,1.4572,1.4564,1.4561,1.4539,1.4527,1.4507,1.449,1.448,1.4476,1.447,1.4482,1.4479,1.4484,1.4484,1.4507,1.4508,1.448,1.448,1.448,0,1.4677,1.4675,1.4653,1.4647,1.4638,1.463,1.4622,1.4602,1.4594,1.4576,1.4574,1.4561,1.455,1.4532,1.4514,1.45,1.4493,1.4502,1.449,1.4496,1.4492,1.4492,1.4491,1.4504,1.4504,1.4505,1.4505,0,1.4702,1.4693,1.4684,1.4671,1.4663,1.4651,1.4639,1.4636,1.4612,1.4605,1.4593,1.4584,1.4567,1.4554,1.4538,1.4526,1.4511,1.4509,1.4509,1.4514,1.4521,1.4516,1.4488,1.4508,1.4508,1.4508,1.4508,1.4507,1.4723,1.472,1.4704,1.4694,1.4682,1.4671,1.4666,1.4651,1.4642,1.4626,1.4614,1.4603,1.4586,1.4563,1.4553,1.4543,1.4536,1.4537,1.4537,1.4537,1.4539,1.4523,1.454,1.454,1.454,1.454,1.454,0,1.4747,1.4735,1.4726,1.4709,1.4701,1.4689,1.4674,1.4668,1.4659,1.4644,1.4634,1.462,1.4607,1.4588,1.4574,1.457,1.4562,1.4567,1.4566,1.4563,1.4546,1.4547,1.4573,1.4573,1.4573,1.4573,1.4573,1.4573,1.4758,1.4752,1.4741,1.4729,1.4717,1.4707,1.47,1.4689,1.4678,1.4663,1.4653,1.4641,1.4624,1.4608,1.4596,1.459,1.4586,1.4592,1.4584,1.4568,1.4565,1.4562,1.4563,1.4591,1.4591,1.4602,1.4602,1.4602]}]]